RH
8 8 12 13 17 22 15 15 35 45 31 29 36 31 28 29 32 42 40 40 24 24 24 21 20 22 23 24 25 28 32 33 28 18 20 23 24 24 25 25 24 22 19 18 18 17 16 19 31
8 9 12 16 16 21 10 23 30 32 56 44 36 35 33 33 43 38 39 37 28 29 31 27 23 22 22 24 25 26 32 38 34 23 20 24 26 27 27 27 26 25 25 22 18 18 19 16 14
10 11 13 17 18 16 18 44 17 17 38 58 49 31 26 25 35 42 38 40 43 39 39 45 36 26 23 24 25 25 29 35 37 34 20 24 28 29 28 28 27 27 26 25 23 19 18 19 17
11 13 14 13 14 14 18 18 19 19 45 54 51 35 28 30 30 36 44 38 48 46 48 53 52 42 28 23 24 24 25 28 36 42 27 22 28 30 30 29 29 28 27 26 26 24 18 18 20
17 15 14 17 17 18 20 20 17 28 47 60 53 45 50 47 43 38 48 44 42 42 43 46 50 41 29 24 24 24 25 27 33 41 43 22 25 31 30 30 30 29 28 28 28 26 21 18 18
25 22 19 19 18 22 26 25 27 28 42 53 54 58 55 50 48 47 48 51 49 46 31 35 42 37 29 25 24 24 26 28 39 42 44 40 22 27 31 31 31 31 30 30 29 27 23 18 18
28 26 19 20 19 21 23 24 24 39 52 57 60 57 53 49 46 38 32 44 54 38 22 26 34 36 31 28 25 27 28 32 48 56 44 51 37 23 28 32 33 33 32 32 31 28 22 18 18
30 29 24 21 20 22 24 20 23 24 33 44 49 45 38 54 50 47 47 42 31 42 23 22 25 30 32 31 31 33 34 37 56 68 58 60 57 33 24 30 33 36 36 35 33 26 20 18 19
30 29 26 23 23 24 25 25 19 19 25 25 24 23 39 55 55 48 41 42 42 33 26 21 20 24 28 30 33 37 41 45 58 73 69 68 65 50 28 30 35 39 41 38 32 22 19 20 20
28 26 24 25 26 26 25 24 25 23 20 28 30 27 29 33 34 32 38 38 33 40 34 28 22 21 24 27 32 35 41 48 58 75 70 68 69 59 33 34 39 44 45 37 24 20 21 21 21
28 27 26 25 25 26 25 24 24 25 25 22 20 24 29 30 31 37 42 40 33 32 33 32 27 22 22 24 23 25 29 37 52 65 66 70 74 51 37 40 47 50 35 23 21 21 21 21 21
28 26 27 26 26 25 26 26 25 25 25 24 23 22 24 23 22 24 23 30 30 32 36 35 29 24 22 22 21 21 24 38 46 60 68 77 62 44 44 50 55 33 23 22 22 22 22 23 24
26 25 26 26 26 25 24 24 26 25 25 24 24 23 22 23 23 24 24 24 23 23 29 32 26 22 21 20 19 22 30 47 61 68 73 63 53 50 58 55 29 24 24 23 23 24 25 25 25
28 24 23 22 22 24 24 23 24 24 25 25 25 24 25 24 26 26 26 26 25 24 22 20 20 19 19 20 22 28 37 50 66 68 64 58 57 61 39 25 26 27 26 26 27 28 27 28 28
31 29 26 24 33 33 31 22 21 22 22 24 26 25 24 24 26 26 27 29 27 26 26 26 22 22 24 26 27 30 42 57 64 64 62 64 54 28 26 28 29 30 32 33 33 32 32 32 32
36 35 31 26 35 30 27 27 24 24 24 26 27 26 25 25 27 28 30 29 28 28 27 26 31 33 32 31 35 37 48 63 67 66 68 48 28 28 29 31 32 33 34 36 37 36 35 34 35
38 38 43 33 38 37 36 30 28 28 29 27 27 27 26 28 29 29 28 28 29 28 28 28 34 36 44 47 40 47 54 54 56 60 50 31 29 31 33 35 36 38 39 39 38 37 39 43 46
42 46 47 49 37 39 38 36 30 28 28 28 27 27 27 28 28 30 32 31 30 30 30 28 33 43 40 44 48 48 54 53 54 55 41 33 32 34 37 40 42 41 42 44 46 49 50 48 41
42 50 56 50 44 42 40 38 36 32 28 28 28 28 28 28 28 28 27 26 30 36 37 30 37 44 49 49 51 52 57 64 62 53 42 36 36 37 40 42 44 46 50 52 52 48 40 35 32
51 55 52 47 44 42 40 42 39 34 31 27 23 22 25 25 27 27 24 23 21 26 33 37 42 50 50 52 50 50 67 72 64 56 45 40 39 41 43 47 48 53 54 52 45 35 34 35 33
51 53 51 47 41 44 43 38 31 20 19 15 7 6 8 6 5 7 13 19 19 22 27 38 44 58 63 64 50 50 49 63 68 59 51 46 44 46 51 52 55 53 48 39 33 30 37 42 39
48 46 49 44 36 31 32 31 25 16 10 6 9 15 21 20 21 19 13 14 18 22 25 38 58 67 68 73 50 63 76 81 70 65 58 51 50 54 55 65 57 42 37 34 33 35 39 43 44
33 34 32 29 31 30 29 28 23 21 15 16 24 27 26 28 29 27 26 27 26 28 37 59 95 98 96 99 63 75 90 85 79 72 63 56 56 59 58 51 45 36 33 30 29 32 40 46 50
26 25 26 29 30 36 28 29 27 24 26 25 24 27 26 24 23 22 22 28 36 37 77 97 100 100 100 97 82 82 79 88 83 74 63 62 65 62 54 47 40 40 35 32 34 36 45 50 47
24 24 34 37 41 42 29 32 28 28 31 30 29 28 26 25 24 28 28 26 56 80 100 100 100 99 98 91 51 59 95 94 86 73 66 67 67 58 54 49 49 38 38 37 38 48 53 47 31
27 28 33 48 56 49 36 35 32 36 37 37 37 39 40 42 46 52 62 65 74 93 100 95 97 95 83 66 43 46 81 90 84 75 68 73 66 64 65 57 43 45 46 47 47 57 54 36 12
33 36 37 38 38 47 38 35 38 44 52 50 48 49 54 57 62 65 76 100 100 99 100 98 96 90 70 81 52 41 58 60 76 77 78 78 72 75 70 50 52 54 58 57 53 60 48 17 4
30 32 33 39 55 59 43 39 37 52 59 56 59 54 54 50 62 60 80 78 78 64 55 54 44 51 72 83 83 61 57 66 64 80 82 83 80 83 72 71 66 67 70 64 63 64 32 6 5
32 32 35 38 39 57 49 45 50 59 60 58 71 76 70 73 59 52 41 36 41 44 35 46 38 45 49 49 64 83 78 76 78 80 82 87 87 90 83 80 74 73 71 72 68 61 19 5 6
36 36 33 40 38 46 62 62 45 48 61 64 62 72 66 91 65 62 54 49 44 46 54 50 42 45 49 56 57 48 53 55 73 80 85 87 91 93 88 86 82 84 80 78 72 51 11 6 7
Wind_Speed
9 8 9 8 7 5 9 7 17 12 9 9 4 6 9 9 9 5 9 15 20 20 19 19 22 21 19 18 17 16 14 12 10 11 10 8 7 4 2 1 3 5 6 6 6 7 7 7 9
7 7 8 8 7 7 12 3 9 13 7 7 6 7 9 9 7 8 9 12 23 16 18 19 21 21 21 20 18 16 14 13 12 12 13 11 8 6 3 2 2 4 6 7 8 8 9 8 8
5 6 6 5 7 8 7 3 18 12 12 13 10 8 9 8 9 14 10 15 23 17 18 19 20 21 21 21 19 17 16 16 14 13 14 12 10 8 7 5 2 4 6 7 8 9 9 9 9
3 5 7 10 11 10 16 21 19 12 12 13 11 13 13 12 15 11 7 11 12 14 15 16 18 21 22 21 21 19 17 17 16 15 14 15 12 11 10 7 5 5 6 8 9 10 10 11 11
4 6 10 8 7 10 14 14 9 7 12 14 15 12 8 10 13 12 7 12 11 10 11 13 16 19 21 22 21 19 19 18 18 18 17 17 15 13 12 9 8 7 7 9 11 11 11 12 12
5 8 10 9 7 10 10 14 7 2 12 17 15 11 11 9 7 8 4 11 13 10 11 12 15 18 21 21 20 21 20 20 20 20 18 17 18 16 15 12 11 10 10 10 11 12 13 13 13
8 10 14 12 9 7 10 10 10 6 5 11 13 11 13 10 5 3 4 6 10 11 12 13 15 17 19 21 21 21 22 22 21 20 19 18 18 18 17 16 14 12 11 11 12 14 15 14 14
11 14 16 12 10 7 12 7 11 10 9 11 12 13 16 11 8 11 11 11 8 11 11 12 14 17 18 20 21 23 24 23 21 20 19 18 18 19 18 17 16 15 13 14 14 15 16 16 16
12 13 15 12 9 11 11 15 11 11 11 12 15 14 16 13 12 10 11 13 14 12 13 13 13 15 18 20 21 22 22 21 22 21 20 19 19 19 18 17 16 16 16 16 16 17 18 17 17
15 17 15 15 14 19 15 14 16 16 15 16 16 14 12 14 14 13 12 13 14 16 16 16 15 16 17 17 18 18 19 20 21 22 22 19 18 20 18 18 18 18 18 18 18 17 17 17 17
20 19 15 16 17 14 15 20 22 21 23 24 20 15 12 13 14 14 15 16 12 13 14 16 17 17 16 15 15 16 18 20 21 22 20 19 19 20 19 20 20 19 18 18 17 16 16 17 18
20 21 19 18 14 16 16 20 24 23 22 24 22 18 13 12 13 13 15 15 17 15 16 19 20 19 17 16 17 18 19 17 19 20 19 19 19 20 20 21 20 19 18 17 15 15 15 17 20
18 23 26 24 23 22 24 27 26 28 23 19 22 24 22 21 19 16 18 18 18 19 19 19 21 21 21 20 21 21 19 17 19 19 19 19 20 20 21 21 19 18 17 16 15 14 16 18 21
16 20 24 27 28 29 33 32 31 30 28 19 17 18 18 19 19 19 17 14 17 19 21 22 23 23 23 22 22 21 20 20 20 20 20 20 21 21 21 19 17 16 17 17 16 17 19 20 22
20 21 17 14 12 16 15 24 29 25 23 20 20 21 24 25 22 22 20 21 20 17 17 21 25 25 24 22 22 22 22 22 21 21 21 21 22 22 21 18 15 15 17 18 19 20 21 22 22
20 20 21 14 10 11 12 17 15 20 19 20 19 19 22 22 22 21 24 24 22 22 19 18 15 21 24 22 21 22 23 22 22 23 22 22 22 21 20 20 18 17 18 20 20 22 22 22 22
16 13 11 18 10 12 15 9 8 16 21 22 22 18 20 19 23 27 27 28 28 28 24 24 19 15 17 20 21 22 23 23 25 25 23 21 21 21 20 20 20 19 19 20 20 20 20 22 25
10 14 20 17 17 20 24 22 17 14 19 21 23 26 26 26 29 32 31 29 28 32 27 28 28 19 16 18 19 22 24 25 25 25 23 21 21 21 20 20 21 20 20 20 20 21 21 21 23
22 23 23 22 20 27 29 32 28 25 25 23 26 28 30 33 33 34 34 34 34 36 34 31 30 21 20 19 19 19 22 24 26 26 23 22 22 22 21 19 20 19 18 22 22 20 19 21 22
17 23 25 21 22 28 31 37 34 34 34 33 33 36 39 43 43 44 45 43 40 39 38 36 32 24 22 22 21 19 22 25 26 25 24 23 22 21 20 20 19 20 21 22 20 19 19 20 23
17 22 21 24 25 29 35 46 39 34 35 34 34 33 35 40 45 47 48 45 39 40 41 41 36 27 24 23 24 19 20 22 24 24 24 23 22 21 19 18 19 21 21 20 20 20 19 20 22
20 19 20 25 24 24 16 27 32 30 26 22 29 30 26 28 31 37 44 46 41 40 41 44 42 34 28 21 21 21 19 21 24 23 23 22 20 19 17 20 20 19 19 19 19 20 21 21 23
18 17 20 23 26 29 21 21 25 22 17 23 21 22 20 21 24 26 26 34 39 44 47 49 46 40 31 18 20 23 19 23 21 20 21 20 19 17 17 17 17 16 16 19 21 24 25 25 25
19 22 22 25 27 18 28 22 21 10 15 20 22 26 26 28 29 31 29 31 34 40 50 51 45 35 24 9 20 18 18 18 17 19 19 18 16 15 16 14 13 14 17 20 23 24 24 24 24
26 21 8 7 4 8 5 10 23 22 27 28 27 28 32 33 28 28 27 29 25 36 48 44 28 9 15 17 11 14 18 17 19 19 18 16 14 15 14 12 11 16 18 21 23 23 22 23 22
15 18 10 6 3 4 6 9 12 16 20 22 24 22 21 22 22 23 18 15 20 31 39 10 8 12 13 14 12 16 18 18 18 17 18 17 16 18 17 12 14 17 19 21 21 20 21 21 19
7 9 11 10 18 9 10 18 16 16 10 13 14 13 13 12 16 20 11 6 15 11 11 25 30 24 18 24 18 18 17 19 17 18 19 19 20 23 15 14 15 19 20 21 20 20 20 18 16
25 19 10 6 3 6 6 14 13 10 8 11 8 8 17 26 22 27 25 25 22 22 24 27 29 31 32 24 22 21 21 19 21 20 20 21 25 21 19 18 20 20 21 20 20 18 17 15 13
25 25 12 11 11 5 11 15 14 10 17 12 11 16 15 14 14 20 21 22 21 20 22 20 20 21 22 23 22 15 15 18 20 21 22 24 25 22 20 22 21 21 21 20 19 18 16 13 13
27 28 27 20 18 12 6 19 34 33 24 16 27 28 30 26 17 25 23 20 20 22 22 22 21 19 20 20 19 22 28 21 17 22 24 26 27 25 24 22 21 21 21 20 19 18 17 14 15
Wind_Direction
255 258 262 268 281 250 279 320 16 14 281 307 311 321 311 316 231 217 246 216 196 180 189 188 198 200 203 210 212 218 220 223 228 226 220 220 222 223 232 351 357 358 353 345 333 322 313 298 286
261 253 256 266 259 263 290 301 20 360 312 263 294 296 301 312 213 236 250 233 195 198 198 197 206 207 207 211 215 222 225 225 229 229 226 226 228 233 230 247 331 349 357 354 348 336 329 320 297
250 242 256 259 262 274 295 278 316 320 292 260 288 304 306 305 257 244 243 237 212 210 203 201 208 214 215 214 218 225 227 230 234 237 233 230 230 234 237 247 270 327 348 350 350 340 323 312 305
256 260 261 257 271 294 309 315 310 275 232 244 268 286 298 301 299 287 221 221 207 208 214 216 217 218 219 220 222 227 232 236 237 241 239 234 233 242 248 253 284 308 329 337 340 340 326 314 310
251 270 251 267 306 334 339 353 332 198 225 236 254 284 311 325 312 289 237 204 205 207 212 215 219 216 216 221 225 230 236 238 240 242 242 240 236 241 250 261 271 287 311 324 328 330 324 317 308
261 274 266 278 298 355 34 7 3 252 238 241 258 280 310 304 295 287 244 217 233 235 228 221 218 213 215 223 230 234 238 240 243 246 244 244 242 243 250 255 270 282 300 310 319 319 315 312 302
260 263 268 283 309 360 17 5 335 355 274 246 269 287 307 306 300 301 300 247 224 225 230 215 215 217 219 226 232 236 238 239 243 246 246 246 247 245 249 259 267 279 289 302 309 307 305 301 296
251 252 269 283 306 321 348 347 322 320 300 273 282 283 290 283 283 295 308 302 280 250 238 229 220 220 223 229 232 235 237 240 243 246 247 249 253 253 253 262 274 282 291 297 298 298 298 296 294
235 258 272 284 315 310 313 320 305 294 281 280 289 287 283 275 274 279 287 289 287 282 267 252 240 228 227 231 236 240 243 245 247 248 250 253 255 258 260 265 273 282 288 291 291 293 293 293 293
230 241 260 269 270 287 293 294 289 295 282 276 275 287 280 279 276 279 282 287 278 273 274 268 255 239 236 240 246 253 253 253 251 251 252 253 255 260 262 266 271 279 284 284 285 287 289 289 288
241 250 263 273 279 282 283 287 283 284 287 283 275 266 255 269 280 281 282 291 279 267 266 267 266 256 252 250 257 261 263 262 257 257 252 250 251 254 258 264 269 274 277 281 285 290 294 296 295
257 254 268 276 269 268 272 278 280 279 286 279 269 269 273 277 279 281 290 283 288 279 260 257 257 255 254 256 262 267 265 261 258 252 251 251 252 255 260 265 269 275 280 284 287 294 298 295 295
271 258 260 265 270 269 272 273 274 277 285 288 269 270 276 282 283 285 295 295 288 280 264 256 256 256 255 258 264 263 257 249 244 244 245 247 251 258 264 268 273 276 276 276 281 287 286 285 286
264 260 263 264 271 272 273 270 265 267 277 283 284 278 281 283 284 283 294 291 302 282 271 267 263 260 258 260 261 258 253 250 247 247 248 252 256 259 261 265 270 274 276 278 281 282 281 281 282
270 273 265 279 294 294 279 259 263 275 267 268 293 299 283 286 273 285 287 288 300 311 300 284 272 268 266 265 260 255 249 246 247 250 254 256 259 261 258 252 255 266 275 279 282 282 282 281 280
273 278 284 273 338 335 314 281 267 253 259 271 283 298 290 277 280 276 279 288 296 306 300 293 291 280 272 269 259 257 253 251 251 252 252 253 256 256 258 259 253 255 267 277 283 284 282 282 282
281 270 270 274 263 300 308 307 285 274 259 261 271 282 283 277 272 277 283 290 294 293 290 288 280 297 285 276 267 258 256 255 254 253 254 255 254 257 260 266 272 274 274 276 281 281 282 283 284
287 274 284 295 282 302 299 288 266 262 249 260 268 273 278 273 275 276 276 276 278 280 277 281 278 279 293 281 274 264 258 258 259 259 258 257 257 258 263 268 269 273 283 289 290 287 284 283 282
275 274 284 280 293 297 293 290 280 263 261 262 269 271 274 275 281 274 272 275 275 267 268 275 274 272 283 293 284 269 261 259 259 259 259 259 260 263 267 266 270 278 288 290 288 286 284 283 282
261 268 275 284 287 289 293 288 287 281 274 276 276 271 269 271 271 272 273 276 273 269 269 266 268 260 272 279 280 270 258 256 260 261 262 260 259 259 258 260 268 279 285 290 290 287 279 276 277
272 270 269 283 290 289 296 290 293 289 282 280 280 276 270 268 269 267 268 273 278 275 271 266 262 253 257 264 275 265 268 260 258 256 256 255 253 254 258 265 281 288 289 288 288 286 281 277 279
278 276 277 282 291 298 295 293 293 298 295 269 287 287 282 273 274 275 273 276 280 273 268 265 257 248 251 255 274 262 258 253 248 252 258 257 254 257 260 279 281 281 284 286 290 290 287 283 279
281 279 280 285 285 290 284 280 286 298 264 275 282 272 272 270 277 283 283 275 274 268 261 250 244 243 248 242 264 261 249 250 254 258 257 258 257 255 266 272 280 286 291 294 294 293 291 287 281
281 285 280 277 278 274 278 250 285 277 296 297 289 279 279 282 288 294 292 296 289 272 246 240 236 236 237 254 271 266 256 254 255 257 254 249 250 259 265 269 272 282 288 291 294 290 286 283 279
267 271 273 282 221 240 251 256 255 273 280 287 285 285 286 291 291 285 278 277 290 261 235 231 231 272 290 276 269 268 257 252 250 247 247 243 245 250 247 251 287 288 290 297 298 291 285 284 287
268 257 224 251 225 251 270 262 276 274 280 286 290 294 292 286 284 271 270 274 262 243 238 290 331 331 318 303 264 255 258 249 241 239 240 235 234 235 241 250 262 276 288 292 295 291 288 287 289
283 257 260 291 287 290 268 265 253 259 269 289 298 293 290 294 306 311 325 316 251 267 287 309 313 313 310 306 310 278 258 247 241 239 233 229 230 238 257 238 260 269 281 286 289 287 287 293 287
278 273 276 243 269 245 268 280 268 223 310 324 310 311 298 291 304 299 296 292 298 311 313 311 318 314 285 267 273 266 254 248 246 242 237 230 234 245 232 242 255 267 279 282 285 287 292 287 268
261 265 261 260 237 241 270 271 258 262 306 281 319 301 316 307 295 303 307 307 303 302 312 308 310 305 304 302 263 280 285 267 251 247 237 237 237 245 243 249 255 267 275 280 285 288 284 268 242
267 270 264 260 266 240 242 260 267 278 271 266 301 310 292 276 271 287 294 290 290 293 297 291 297 304 305 291 273 265 248 247 254 247 240 236 241 249 247 254 257 266 275 276 279 276 271 249 228